Tracking 18840 objects as of 17-November-2017
HD Live streaming from Space Station
objects crossing your sky now

COSMOS 1690

Track COSMOS 1690 now!
10-day predictions
COSMOS 1690 is classified as:


NORAD ID: 16138
Int'l Code: 1985-094A
Perigee: 1,389.3 km
Apogee: 1,421.4 km
Inclination: 82.6 °
Period: 113.7 minutes
Semi major axis: 7776 km
RCS: 1.19 m2 (large)
Launch date: October 9, 1985
Source: Commonwealth of Independent States (former USSR) (CIS)
Launch site: PLESETSK MISSILE AND SPACE COMPLEX (PKMTR)
aabbcc
Your satellite tracking list
Your tracking list is empty




NASA's NSSDC Master Catalog

Two Line Element Set (TLE):
1 16138U 85094A   17321.07209278  .00000005  00000-0 -28727-4 0  9990
2 16138  82.6096  66.8683 0020639 248.8536 213.8984 12.66019686483774
Source of the keplerian elements: AFSPC